Waarnemingen

Advertentie
Mijn weer
Aurillac, Frankrijk (7549): temperatuur & dauwpunt: 08.12.2018 12:00:00 - 14.12.2018 12:00:00 (CET)Aurillac, Frankrijk (7549): temperatuur 5cm: 08.12.2018 12:00:00 - 14.12.2018 12:00:00 (CET)Aurillac, Frankrijk (7549): temperatuur -20cm & temperatuur -100cm: 08.12.2018 12:00:00 - 14.12.2018 12:00:00 (CET)Aurillac, Frankrijk (7549): windsnelheid & windstoten: 08.12.2018 12:00:00 - 14.12.2018 12:00:00 (CET)Aurillac, Frankrijk (7549): windrichting: 08.12.2018 12:00:00 - 14.12.2018 12:00:00 (CET)Aurillac, Frankrijk (7549): luchtdruk: 08.12.2018 12:00:00 - 14.12.2018 12:00:00 (CET)Aurillac, Frankrijk (7549): zicht: 08.12.2018 12:00:00 - 14.12.2018 12:00:00 (CET)Aurillac, Frankrijk (7549): Zonneschijnduur: 08.12.2018 12:00:00 - 14.12.2018 12:00:00 (CET)Aurillac, Frankrijk (7549): neerslag: 08.12.2018 12:00:00 - 14.12.2018 12:00:00 (CET)
Datum & Tijd tt [°C] td [°C] tt 5cm [°C] tt -20cm [°C] tt -100cm [°C] ff [km/u] ff [kn] fx [km/u] fx [kn] dd ppp [hPa] vv [km] sd [min] rr [mm]
14.12.2018 12:00:00 - - - - - - - - - - - - - -
14.12.2018 11:00:00 3,0 2,7 3,0 7,5 11,2 5 3 10 6 WNW 1017,4 3,3 0 0,0
14.12.2018 10:00:00 2,3 2,0 2,3 7,5 11,2 7 4 11 6 NW 1017,0 0,2 0 0,0
14.12.2018 09:00:00 1,9 1,6 2,0 7,5 11,2 8 5 13 7 NW 1016,1 0,2 0 0,0
14.12.2018 08:00:00 1,9 1,5 1,1 7,5 11,1 8 5 12 6 WNW 1014,8 0,1 0 0,0
14.12.2018 07:00:00 2,4 2,0 1,8 7,5 11,2 4 2 8 4 NW 1014,0 - 0 0,0
14.12.2018 06:00:00 3,3 2,9 1,1 7,5 11,2 5 3 7 4 NW 1013,4 0,2 0 0,0
14.12.2018 05:00:00 3,9 3,5 3,4 7,5 11,2 5 3 12 7 WNW 1012,9 2,4 0 0,0
14.12.2018 04:00:00 4,1 3,7 4,2 7,5 11,2 4 2 9 5 NW 1012,9 0,8 0 0,2
14.12.2018 03:00:00 4,1 3,5 4,1 7,5 11,2 2 1 3 2 WNW 1012,6 1,3 0 0,0
14.12.2018 02:00:00 4,1 3,4 4,1 7,4 11,2 3 1 5 3 W 1011,9 0,6 0 0,0
14.12.2018 01:00:00 4,3 3,4 4,0 7,4 11,2 3 2 5 3 NW 1011,7 3,4 0 0,0
14.12.2018 00:00:00 4,5 3,5 3,9 7,4 11,2 0 0 4 2 N 1011,4 14 0 0,0
13.12.2018 23:00:00 4,4 3,4 3,9 7,4 11,2 3 1 4 2 OZO 1010,7 6 0 0,0
13.12.2018 22:00:00 4,5 3,5 3,8 7,4 11,2 0 0 5 3 N 1010,4 10 0 0,0
13.12.2018 21:00:00 4,4 3,2 3,5 7,4 11,2 0 0 4 2 N 1010,0 12 0 0,0
13.12.2018 20:00:00 4,5 3,0 3,8 7,4 11,2 3 2 5 3 ZZO 1009,2 12 0 0,0
13.12.2018 19:00:00 4,8 2,8 3,5 7,3 11,2 0 0 5 3 N 1008,4 16 0 0,0
13.12.2018 18:00:00 5,4 3,1 4,3 7,3 11,2 5 3 7 4 OZO 1007,7 12 0 0,0
13.12.2018 17:00:00 5,5 3,0 4,8 7,3 11,3 5 3 11 6 O 1007,1 14 0 0,0
13.12.2018 16:00:00 5,8 2,8 6,1 7,2 11,3 8 5 16 8 ZO 1006,7 19 0 0,0
13.12.2018 15:00:00 6,0 2,8 6,6 7,2 11,3 11 6 19 10 ZO 1006,7 52 0 0,0
13.12.2018 14:00:00 6,1 2,7 6,9 7,2 11,3 14 8 19 11 ZZO 1006,8 58 0 0,0
13.12.2018 13:00:00 6,2 2,5 7,4 7,2 11,3 12 6 23 12 ZO 1006,9 20 3 0,0
13.12.2018 12:00:00 6,2 1,9 7,7 7,2 11,3 14 7 26 14 ZO 1007,1 56 56 0,0
13.12.2018 11:00:00 4,9 0,5 5,3 7,3 11,3 11 6 21 11 O 1008,1 53 30 0,0
13.12.2018 10:00:00 3,9 -0,1 1,7 7,3 11,3 9 5 13 7 O 1008,3 18 20 0,0
13.12.2018 09:00:00 2,2 -0,9 1,2 7,3 11,3 10 5 16 8 O 1009,1 51 2 0,0
13.12.2018 08:00:00 2,0 -0,9 1,1 7,3 11,3 11 6 20 11 O 1009,3 60 0 0,0
13.12.2018 07:00:00 1,6 -0,8 0,7 7,4 11,3 13 7 21 11 O 1010,0 60 0 0,0
13.12.2018 06:00:00 1,2 -0,6 0,0 7,4 11,3 9 5 15 8 O 1011,0 55 0 0,0
13.12.2018 05:00:00 0,8 -0,8 -0,6 7,4 11,3 7 4 13 7 ZO 1011,9 60 0 0,0
13.12.2018 04:00:00 1,1 -0,5 -0,3 7,4 11,3 6 3 14 8 ZZO 1012,5 39 0 0,0
13.12.2018 03:00:00 1,3 -0,3 -0,4 7,4 11,3 8 5 13 7 OZO 1013,0 20 0 0,0
13.12.2018 02:00:00 2,0 0,2 0,5 7,4 11,3 6 3 12 6 OZO 1013,6 20 0 0,0
13.12.2018 01:00:00 2,1 0,3 1,7 7,4 11,3 8 5 14 7 OZO 1014,5 18 0 0,0
13.12.2018 00:00:00 2,6 0,7 0,8 7,4 11,3 8 4 14 8 O 1015,3 19 0 0,0
12.12.2018 23:00:00 2,8 0,8 2,4 7,4 11,3 9 5 14 7 O 1015,6 17 0 0,0
12.12.2018 22:00:00 2,7 1,1 2,3 7,4 11,3 5 3 11 6 O 1016,3 14 0 0,0
12.12.2018 21:00:00 2,7 1,5 2,6 7,4 11,3 5 3 7 4 OZO 1017,1 6 0 0,0
12.12.2018 20:00:00 3,0 1,2 2,7 7,4 11,3 2 1 5 3 ZO 1017,8 10 0 0,0
12.12.2018 19:00:00 3,4 1,1 3,1 7,4 11,3 0 0 6 4 N 1017,9 30 0 0,0
12.12.2018 18:00:00 3,6 0,8 2,3 7,4 11,3 0 0 4 2 N 1018,0 20 0 0,0
12.12.2018 17:00:00 3,8 0,7 2,2 7,4 11,3 4 2 8 5 ZW 1018,0 39 7 0,0
12.12.2018 16:00:00 4,7 0,6 5,5 7,4 11,3 3 2 17 9 ZZO 1018,2 55 10 0,0
12.12.2018 15:00:00 4,8 0,7 5,9 7,4 11,3 5 3 8 5 WZW 1018,2 37 3 0,0
12.12.2018 14:00:00 4,3 0,4 4,6 7,5 11,4 5 3 11 6 O 1018,6 19 2 0,0
12.12.2018 13:00:00 3,5 -0,3 4,5 7,5 11,4 6 3 10 6 NW 1019,9 37 0 0,0
12.12.2018 12:00:00 4,0 -0,6 5,5 7,5 11,4 4 2 11 6 Z 1020,0 51 15 0,0
12.12.2018 11:00:00 3,6 -1,4 4,4 7,6 11,4 5 3 11 6 OZO 1020,6 20 56 0,0
12.12.2018 10:00:00 0,0 -2,7 -1,7 7,6 11,4 7 4 11 6 O 1021,7 18 57 0,0
12.12.2018 09:00:00 -2,3 -3,9 -5,3 7,7 11,4 5 3 10 6 O 1022,7 18 13 0,0
12.12.2018 08:00:00 -2,8 -4,1 -4,8 7,8 11,4 6 3 12 7 OZO 1022,9 20 0 0,0
12.12.2018 07:00:00 -1,9 -3,8 -4,7 7,8 11,4 5 3 10 5 O 1022,4 32 0 0,0
12.12.2018 06:00:00 -2,4 -4,1 -5,2 7,9 11,4 6 3 10 6 OZO 1022,3 16 0 0,0
12.12.2018 05:00:00 -2,7 -4,1 -5,2 7,9 11,4 5 3 9 5 O 1023,0 16 0 0,0
12.12.2018 04:00:00 -2,7 -3,8 -5,9 8,0 11,4 8 4 10 5 O 1023,6 17 0 0,0
12.12.2018 03:00:00 -2,8 -3,8 -5,3 8,0 11,4 3 2 8 5 Z 1023,5 18 0 0,0
12.12.2018 02:00:00 -2,3 -3,4 -5,8 8,1 11,4 8 4 10 5 O 1023,2 19 0 0,0
12.12.2018 01:00:00 -2,3 -3,1 -5,2 8,1 11,4 4 2 10 6 O 1023,5 12 0 0,0
12.12.2018 00:00:00 -1,6 -2,7 -5,1 8,1 11,4 5 3 7 4 O 1023,3 15 0 0,0
11.12.2018 23:00:00 -1,1 -2,7 -4,7 8,2 11,4 3 2 11 6 OZO 1023,2 10 0 0,0
11.12.2018 22:00:00 -0,8 -2,1 -3,4 8,2 11,4 6 3 14 8 ZO 1022,9 13 0 0,0
11.12.2018 21:00:00 0,3 -1,5 -2,8 8,2 11,4 10 6 11 6 OZO 1023,1 15 0 0,0
11.12.2018 20:00:00 1,0 -1,6 -2,3 8,2 11,4 6 4 10 5 O 1023,0 16 0 0,0
11.12.2018 19:00:00 2,0 -0,9 -1,0 8,2 11,4 6 3 11 6 OZO 1022,7 17 0 0,0
11.12.2018 18:00:00 3,4 -0,8 0,2 8,1 11,4 5 3 11 6 OZO 1022,1 13 0 0,0
11.12.2018 17:00:00 4,8 -0,2 2,7 8,1 11,4 9 5 13 7 ZO 1021,8 15 24 0,0
11.12.2018 16:00:00 7,4 -0,1 9,2 8,1 11,4 6 4 11 6 ZO 1021,2 60 60 0,0
11.12.2018 15:00:00 7,7 0,4 12,1 8,1 11,4 4 2 11 6 ZO 1021,4 57 60 0,0
11.12.2018 14:00:00 7,7 1,3 12,9 8,1 11,4 7 4 16 9 Z 1022,1 58 60 0,0
11.12.2018 13:00:00 7,0 1,1 11,8 8,2 11,4 5 3 10 5 OZO 1022,9 58 60 0,0
11.12.2018 12:00:00 3,9 2,6 5,6 8,2 11,4 3 2 7 4 NW 1024,4 19 60 0,0
11.12.2018 11:00:00 1,3 0,9 3,6 8,3 11,4 0 0 5 3 N 1025,7 17 60 0,0
11.12.2018 10:00:00 -0,8 -1,2 -2,5 8,4 11,4 0 0 8 4 N 1026,4 9 60 0,0
11.12.2018 09:00:00 -3,0 -3,3 -6,2 8,4 11,4 6 3 7 4 O 1026,9 0,6 16 0,0
11.12.2018 08:00:00 -3,0 -3,3 -5,0 8,5 11,4 5 3 8 4 ONO 1027,3 0,4 0 0,0
11.12.2018 07:00:00 -2,6 -2,9 -6,8 8,6 11,4 3 2 6 3 Z 1027,7 0,2 0 0,0
11.12.2018 06:00:00 -2,8 -3,2 -6,4 8,6 11,4 0 0 6 4 N 1028,3 0,4 0 0,0
11.12.2018 05:00:00 -2,1 -2,5 -6,2 8,7 11,4 3 2 8 4 ZO 1028,7 1,5 0 0,0
11.12.2018 04:00:00 -1,8 -2,2 -5,6 8,7 11,4 4 2 8 4 OZO 1029,1 6 0 0,0
11.12.2018 03:00:00 -1,4 -1,8 -5,4 8,8 11,4 4 2 6 4 O 1029,3 0,9 0 0,0
11.12.2018 02:00:00 -0,3 -0,7 -4,8 8,8 11,4 0 0 8 4 N 1029,3 13 0 0,0
11.12.2018 01:00:00 0,4 -0,2 -1,5 8,9 11,4 5 3 15 8 NO 1029,5 12 0 0,0
11.12.2018 00:00:00 1,0 0,3 -2,0 8,9 11,4 9 5 12 7 NW 1029,9 12 0 0,0
10.12.2018 23:00:00 0,7 -0,3 -2,1 8,9 11,4 6 4 8 5 WNW 1030,3 4,7 0 0,0
10.12.2018 22:00:00 2,5 1,2 0,1 8,9 11,4 6 3 11 6 NNW 1030,0 14 0 0,0
10.12.2018 21:00:00 3,1 1,5 0,3 8,9 11,4 5 3 11 6 NNW 1030,5 20 0 0,0
10.12.2018 20:00:00 3,9 2,1 0,4 9,0 11,4 6 3 12 7 N 1030,5 20 0 0,0
10.12.2018 19:00:00 3,6 2,0 1,3 9,0 11,4 5 3 14 7 NW 1030,6 20 0 0,0
10.12.2018 18:00:00 4,5 2,2 2,3 8,9 11,4 5 3 13 7 WNW 1030,4 20 0 0,0
10.12.2018 17:00:00 5,6 2,2 5,3 8,9 11,4 11 6 23 12 NNW 1030,1 20 2 0,0
10.12.2018 16:00:00 6,2 2,6 6,3 8,9 11,5 10 5 21 12 NNW 1030,0 60 5 0,0
10.12.2018 15:00:00 5,8 2,3 6,0 8,9 11,4 12 7 29 15 NNW 1030,4 60 18 0,0
10.12.2018 14:00:00 6,7 2,8 6,7 8,9 11,4 20 11 36 19 NW 1030,5 20 32 0,0
10.12.2018 13:00:00 6,6 3,2 7,3 8,9 11,4 20 11 33 18 NW 1031,1 18 44 0,0
10.12.2018 12:00:00 6,0 3,3 5,8 8,9 11,4 20 11 33 18 NW 1031,6 19 14 0,0
10.12.2018 11:00:00 5,1 3,3 5,5 9,0 11,5 14 8 24 13 NNW 1032,4 18 6 0,0
10.12.2018 10:00:00 4,9 3,4 4,6 9,0 11,4 15 8 29 16 NW 1032,1 17 3 0,0
10.12.2018 09:00:00 4,8 3,6 4,5 9,0 11,5 16 9 25 14 NW 1031,7 15 0 0,0
10.12.2018 08:00:00 4,7 3,7 4,4 9,0 11,5 16 9 29 16 NW 1031,2 15 0 0,0
10.12.2018 07:00:00 5,0 4,1 4,2 9,0 11,4 17 9 31 17 NW 1030,8 16 0 0,2
10.12.2018 06:00:00 5,1 4,2 4,7 9,1 11,4 18 10 29 15 WNW 1030,7 12 0 0,0
10.12.2018 05:00:00 5,2 4,3 4,6 9,1 11,5 17 9 29 16 WNW 1030,5 17 0 0,0
10.12.2018 04:00:00 5,3 4,6 4,8 9,1 11,5 19 11 30 16 WNW 1030,7 9 0 0,2
10.12.2018 03:00:00 5,4 4,7 5,1 9,1 11,5 18 10 29 16 WNW 1030,7 12 0 0,2
10.12.2018 02:00:00 5,6 4,7 5,0 9,1 11,5 17 9 32 17 WNW 1030,2 12 0 0,0
10.12.2018 01:00:00 5,7 4,7 5,4 9,2 11,5 19 10 36 20 WNW 1030,5 12 0 0,0
10.12.2018 00:00:00 5,9 4,7 5,1 9,2 11,5 24 13 43 23 WNW 1030,1 13 0 0,0
09.12.2018 23:00:00 5,8 4,9 5,4 9,2 11,5 25 14 46 25 WNW 1029,1 8 0 0,0
09.12.2018 22:00:00 5,9 5,0 5,2 9,2 11,5 26 14 43 23 WNW 1028,8 11 0 0,0
09.12.2018 21:00:00 5,8 4,9 5,1 9,2 11,5 27 15 42 23 WNW 1028,4 19 0 0,2
09.12.2018 20:00:00 6,0 5,1 5,2 9,2 11,5 22 12 44 24 WNW 1027,7 6 0 0,6
09.12.2018 19:00:00 6,1 5,2 5,8 9,3 11,5 21 12 48 26 NW 1027,3 2,9 0 2,2
09.12.2018 18:00:00 6,5 5,1 5,7 9,2 11,5 25 14 45 25 W 1025,6 7 0 0,2
09.12.2018 17:00:00 6,4 5,0 5,7 9,3 11,5 25 14 43 23 W 1025,3 10 2 0,6
09.12.2018 16:00:00 6,4 4,9 5,6 9,3 11,5 17 9 50 27 WNW 1025,1 20 5 1,0
09.12.2018 15:00:00 6,9 4,9 6,5 9,2 11,5 18 10 50 27 WNW 1024,2 10 0 0,0
09.12.2018 14:00:00 7,1 4,6 6,4 9,3 11,5 27 14 55 30 NW 1024,0 15 0 0,2
09.12.2018 13:00:00 7,1 5,9 6,6 9,3 11,5 29 15 56 30 WNW 1023,7 7 0 0,2
09.12.2018 12:00:00 6,6 5,2 6,3 9,3 11,5 34 19 77 42 WNW 1024,0 11 0 0,8
09.12.2018 11:00:00 7,9 6,7 7,2 9,3 11,5 31 17 59 32 W 1022,7 5 0 0,2
09.12.2018 10:00:00 7,8 6,6 7,2 9,3 11,5 27 14 61 33 W 1022,7 7 0 0,6
09.12.2018 09:00:00 7,7 6,5 7,1 9,3 11,5 24 13 45 24 WNW 1022,8 8 0 0,4
09.12.2018 08:00:00 7,6 6,1 7,0 9,2 11,5 21 11 58 31 W 1022,8 4,8 0 0,2
09.12.2018 07:00:00 8,1 6,6 7,5 9,2 11,5 23 12 51 28 W 1022,4 12 0 0,0
09.12.2018 06:00:00 8,1 7,0 7,5 9,3 11,5 14 8 53 29 W 1022,3 16 0 0,4
09.12.2018 05:00:00 8,3 7,7 8,0 9,3 11,5 16 9 29 16 W 1022,3 2,9 0 2,0
09.12.2018 04:00:00 8,4 7,5 7,9 9,3 11,5 23 12 43 23 W 1022,5 3,2 0 0,2
09.12.2018 03:00:00 8,2 7,4 7,4 9,3 11,5 21 11 43 23 WZW 1022,7 12 0 0,4
09.12.2018 02:00:00 8,1 7,5 7,5 9,3 11,5 18 10 42 23 W 1022,7 7 0 0,4
09.12.2018 01:00:00 7,6 7,2 7,4 9,3 11,5 11 6 23 12 WZW 1023,8 1,8 0 0,8
09.12.2018 00:00:00 7,5 7,1 7,2 9,3 11,5 14 8 28 15 WZW 1024,0 4,5 0 0,4
08.12.2018 23:00:00 7,2 6,8 6,9 9,3 11,5 14 8 24 13 W 1023,9 2,1 0 0,4
08.12.2018 22:00:00 7,0 6,4 6,7 9,3 11,5 15 8 24 13 W 1024,2 3,1 0 0,2
08.12.2018 21:00:00 7,0 6,3 6,7 9,3 11,5 19 11 36 20 W 1024,8 6 0 0,4
08.12.2018 20:00:00 7,2 6,5 6,8 9,3 11,5 18 10 35 19 W 1024,7 18 0 0,2
08.12.2018 19:00:00 6,9 6,3 6,7 9,3 11,5 19 11 31 17 W 1024,9 6 0 0,4
08.12.2018 18:00:00 6,8 6,2 6,7 9,3 11,5 15 8 21 11 WZW 1025,1 2,4 0 0,6
08.12.2018 17:00:00 6,8 5,9 6,6 9,3 11,5 9 5 23 13 W 1025,5 6 0 0,4
08.12.2018 16:00:00 7,0 6,3 6,8 9,3 11,5 11 6 23 12 W 1025,7 16 0 0,2
08.12.2018 15:00:00 6,9 6,2 6,8 9,3 11,5 18 10 31 17 W 1025,8 14 0 0,2
08.12.2018 14:00:00 6,9 6,0 6,7 9,3 11,5 21 11 37 20 W 1026,2 6 0 0,0
08.12.2018 13:00:00 6,6 5,7 6,5 9,4 11,5 18 10 35 19 WNW 1026,6 5 0 0,2
08.12.2018 12:00:00 6,4 5,5 6,2 9,4 11,5 20 11 35 19 WNW 1027,0 8 1 0,0

tt = temperatuur
td = dauwpunt
tt 5cm = temperatuur 5cm
tt -20cm = temperatuur -20cm
tt -100cm = temperatuur -100cm
ff = windsnelheid
fx = windstoten
dd = windrichting
ppp = luchtdruk
vv = zicht
sd = Zonneschijnduur
rr = neerslag

Weerstations in de omgeving